Change the Weather History Date:

Friday, November 1, 2013

  Actual Average Record
Temperature  
Mean Temperature 92 °F -  
Max Temperature 103 °F - - ()
Min Temperature 80 °F - - ()
Cooling Degree Days 26    
Growing Degree Days 42 (Base 50)    
Moisture  
Dew Point 51 °F    
Average Humidity 24    
Maximum Humidity 42    
Minimum Humidity 7    
Precipitation  
Precipitation 0.00 in - - ()
Sea Level Pressure  
Sea Level Pressure 29.87 in    
Wind  
Wind Speed 7 mph ()    
Max Wind Speed 13 mph    
Max Gust Speed -    
T = Trace of Precipitation, MM = Missing Value Source: Averaged Metar Reports

Daily Weather History Graph

Daily Weather History Graph

Search for Another Location

Airport or City:

Trip Planner

Search our weather history database for the weather conditions in past years. The results will help you decide how hot, cold, wet, or windy it might be!

Date:

Astronomy

Nov. 01, 2013 Rise Set
Actual Time 5:07 AM AWST 6:02 PM AWST
Civil Twilight 4:44 AM AWST 6:25 PM AWST
Nautical Twilight 4:16 AM AWST 6:52 PM AWST
Astronomical Twilight 3:48 AM AWST 7:20 PM AWST
Moon 3:13 AM AWST (11/1) 3:53 PM AWST (11/1)
Length of Visible Light 13h 41m
Length of Day
12h 54m
Waning Crescent, 7% of the Moon is Illuminated
Nov 1
Waning Crescent
Nov 3
New
Nov 10
First Quarter
Nov 17
Full
Nov 26
Last Quarter

Hourly Weather History & Observations

Time (AWST) Temp. Heat Index Dew Point Humidity Pressure Visibility Wind Dir Wind Speed Gust Speed Precip Events Conditions
12:00 AM 85 °F - 49 °F 19% 29.86 in - NE 5.8 mph - -  
12:00 AM 84.2 °F - 48.2 °F 29% 29.92 in - NE 5.8 mph - N/A   Unknown
1:00 AM 84.2 °F - 50.0 °F 30% 29.89 in - NW 8.1 mph - N/A   Unknown
2:00 AM 82 °F - 55 °F 29% 29.85 in - West 8.1 mph - -  
2:00 AM 82.4 °F 81.7 °F 55.4 °F 39% 29.89 in - West 8.1 mph - N/A   Unknown
3:00 AM 82 °F - 56 °F 30% 29.83 in - West 10.4 mph - -  
3:00 AM 82.4 °F 81.7 °F 55.4 °F 39% 29.89 in - West 10.4 mph - N/A   Unknown
4:00 AM 82.4 °F 82.0 °F 57.2 °F 42% 29.89 in - WSW 10.4 mph - N/A   Unknown
5:00 AM 81 °F - 56 °F 32% 29.86 in - WSW 12.7 mph - -  
5:00 AM 80.6 °F 80.5 °F 55.4 °F 42% 29.92 in - WSW 12.7 mph - N/A   Unknown
6:00 AM 83 °F - 53 °F 25% 29.88 in - SW 9.2 mph - -  
6:00 AM 82.4 °F 81.4 °F 53.6 °F 37% 29.92 in - SW 9.2 mph - N/A   Unknown
7:00 AM 86.0 °F 84.5 °F 55.4 °F 35% 29.95 in - South 2.3 mph - N/A   Unknown
8:00 AM 90 °F - 55 °F 21% 29.90 in - West 3.5 mph - -  
8:00 AM 91.4 °F 89.4 °F 55.4 °F 29% 29.95 in - West 3.5 mph - N/A   Unknown
9:00 AM 96 °F - 49 °F 12% 29.90 in - North 8.1 mph - -  
9:00 AM 95.0 °F - 50.0 °F 22% 29.95 in - North 8.1 mph - N/A   Unknown
10:00 AM 98.6 °F - 46.4 °F 17% 29.95 in - NNE 12.7 mph - N/A   Unknown
11:00 AM 98 °F - 49 °F 11% 29.87 in - North 6.9 mph - -  
11:00 AM 98.6 °F - 48.2 °F 18% 29.92 in - North 6.9 mph - N/A   Unknown
12:00 PM 100.4 °F - 46.4 °F 16% 29.89 in - North 12.7 mph - N/A   Unknown
1:00 PM 100.4 °F - 46.4 °F 16% 29.86 in - NNE 5.8 mph - N/A   Unknown
2:00 PM 101 °F - 45 °F 8% 29.79 in - East 6.9 mph - -  
2:00 PM 100.4 °F - 44.6 °F 15% 29.83 in - East 6.9 mph - N/A   Unknown
3:00 PM 101 °F - 43 °F 7% 29.77 in - NNE 6.9 mph - -  
3:00 PM 102.2 °F - 42.8 °F 13% 29.83 in - NNE 6.9 mph - N/A   Unknown
4:00 PM 100.4 °F - 44.6 °F 15% 29.80 in - NE 5.8 mph - N/A   Unknown
5:00 PM 101 °F - 43 °F 7% 29.76 in - ENE 8.1 mph - -  
5:00 PM 100.4 °F - 42.8 °F 14% 29.83 in - ENE 8.1 mph - N/A   Unknown
6:00 PM 98 °F - 44 °F 9% 29.78 in - East 4.6 mph - -  
6:00 PM 98.6 °F - 44.6 °F 16% 29.83 in - East 4.6 mph - N/A   Unknown
7:00 PM 93.2 °F - 46.4 °F 20% 29.86 in - ENE 6.9 mph - N/A   Unknown
8:00 PM 92 °F - 52 °F 16% 29.84 in - NNW 11.5 mph - -  
8:00 PM 91.4 °F - 51.8 °F 26% 29.89 in - NNW 11.5 mph - N/A   Unknown
9:00 PM 87 °F - 59 °F 28% 29.88 in - NNW 11.5 mph - -  
9:00 PM 86.0 °F 85.4 °F 59.0 °F 40% 29.92 in - NNW 11.5 mph - N/A   Unknown
10:00 PM 86.0 °F 84.9 °F 57.2 °F 37% 29.92 in - NW 11.5 mph - N/A   Unknown
11:00 PM 85 °F - 56 °F 26% 29.88 in - NW 6.9 mph - -  
11:00 PM 84.2 °F 83.0 °F 55.4 °F 37% 29.92 in - NW 6.9 mph - N/A   Unknown